Carlsbad, NM

12:11 AM MDT on October 01, 2016 (GMT -0600)
Cavern City

Weather History for KCNM - March, 2013

Change the Weather History Date:

Tuesday, March 19, 2013

  Actual Average Record
Temperature  
Mean Temperature 65 °F -  
Max Temperature 80 °F 71 °F 87 °F (2004)
Min Temperature 51 °F 40 °F 20 °F (1965)
Growing Degree Days 15 (Base 50)    
Moisture  
Dew Point 13 °F    
Average Humidity 15    
Maximum Humidity 48    
Minimum Humidity 7    
Precipitation  
Precipitation 0.00 in - - ()
Sea Level Pressure  
Sea Level Pressure 29.86 in    
Wind  
Wind Speed 10 mph (North)    
Max Wind Speed 16 mph    
Max Gust Speed 25 mph    
Visibility 10 miles    
Events      
Averages and records for this station are not official NWS values.
T = Trace of Precipitation, MM = Missing Value Source: NWS Daily Summary

Daily Weather History Graph

Daily Weather History Graph

Search for Another Location

Airport or City:

Trip Planner

Search our weather history database for the weather conditions in past years. The results will help you decide how hot, cold, wet, or windy it might be!

Date:

Astronomy

Mar. 19, 2013 Rise Set
Actual Time 7:01 AM MDT 7:08 PM MDT
Civil Twilight 6:37 AM MDT 7:32 PM MDT
Nautical Twilight 6:08 AM MDT 8:01 PM MDT
Astronomical Twilight 5:39 AM MDT 8:29 PM MDT
Moon 12:12 PM MDT (3/19) 1:38 AM MDT (3/19)
Length of Visible Light 12h 55m
Length of Day
12h 06m
Waxing Crescent, 50% of the Moon is Illuminated
Mar 19
Waxing Crescent
Mar 27
Full
Apr 2
Last Quarter
Apr 10
New
Apr 18
First Quarter

Hourly Weather History & Observations

Time (MDT) Temp. Dew Point Humidity Pressure Visibility Wind Dir Wind Speed Gust Speed Precip Events Conditions
12:53 AM 61.0 °F 12.0 °F 15% 29.79 in 10.0 mi WSW 12.7 mph - N/A   Clear
1:53 AM 63.0 °F 9.0 °F 12% 29.77 in 10.0 mi WSW 13.8 mph - N/A   Clear
2:53 AM 63.0 °F 8.1 °F 11% 29.77 in 10.0 mi West 12.7 mph - N/A   Clear
3:53 AM 57.9 °F 7.0 °F 13% 29.80 in 10.0 mi NNW 10.4 mph - N/A   Clear
4:53 AM 57.0 °F 6.1 °F 13% 29.79 in 10.0 mi West 13.8 mph - N/A   Clear
5:53 AM 55.9 °F 7.0 °F 14% 29.81 in 10.0 mi Calm Calm - N/A   Clear
6:53 AM 51.1 °F 8.1 °F 18% 29.84 in 10.0 mi WNW 4.6 mph - N/A   Clear
7:53 AM 52.0 °F 9.0 °F 18% 29.87 in 10.0 mi Calm Calm - N/A   Clear
8:53 AM 59.0 °F 8.1 °F 13% 29.87 in 10.0 mi East 4.6 mph - N/A   Clear
9:53 AM 61.0 °F 10.0 °F 13% 29.87 in 10.0 mi ENE 4.6 mph - N/A   Clear
10:53 AM 64.9 °F 10.0 °F 12% 29.86 in 10.0 mi ENE 4.6 mph - N/A   Clear
11:53 AM 69.8 °F 10.4 °F 10% 29.96 in 7.0 mi North 6.9 mph - N/A   Clear
12:53 PM 73.9 °F 10.9 °F 9% 29.82 in 10.0 mi Variable 6.9 mph - N/A   Clear
1:53 PM 79.0 °F 12.9 °F 8% 29.77 in 10.0 mi West 12.7 mph - N/A   Clear
2:53 PM 78.1 °F 12.0 °F 8% 29.75 in 10.0 mi WSW 10.4 mph - N/A   Clear
3:17 PM 77.0 °F 10.4 °F 8% 29.89 in 10.0 mi ENE 8.1 mph 25.3 mph N/A   Clear
3:53 PM 78.1 °F 10.0 °F 7% 29.76 in 10.0 mi NE 8.1 mph 18.4 mph N/A   Clear
4:53 PM 78.1 °F 10.0 °F 7% 29.77 in 10.0 mi WNW 5.8 mph - N/A   Clear
5:53 PM 75.9 °F 10.0 °F 8% 29.80 in 10.0 mi NNE 11.5 mph - N/A   Clear
6:53 PM 73.0 °F 12.0 °F 10% 29.84 in 10.0 mi NNE 13.8 mph - N/A   Clear
7:53 PM 68.0 °F 14.0 °F 12% 29.91 in 10.0 mi NNE 13.8 mph 20.7 mph N/A   Clear
8:53 PM 64.9 °F 14.0 °F 14% 29.97 in 10.0 mi North 16.1 mph 21.9 mph N/A   Clear
9:53 PM 59.0 °F 28.0 °F 31% 30.04 in 10.0 mi NNE 15.0 mph 21.9 mph N/A   Partly Cloudy
10:53 PM 55.0 °F 32.0 °F 42% 30.09 in 10.0 mi ENE 10.4 mph - N/A   Clear
11:53 PM 51.1 °F 32.0 °F 48% 30.13 in 10.0 mi ENE 6.9 mph - N/A   Clear